sat.trackr.live / text

‹ back to catalog

TEIKYOSAT-4 (OORURI)

NORAD 49396 · 2021-102B

PAYLOAD ACTIVE UNKNOWN

§ Identity

Operator
Country
JPN
Launch date
2021-11-09
Launch site
KSCUT
Launch vehicle
Mass (kg)
RCS (m²)

External: N2YO · Heavens-Above · Gunter

§ Orbital elements

Epoch: 2026-09-20T21:34:00.149376Z

Period
95.38 min
Inclination
97.3627°
Eccentricity
0.0011026
Mean motion
15.09785639 rev/d
Perigee alt
529.2 km
Apogee alt
544.5 km
Semi-major
6,915.0 km
B*
7.2792e-5
RAAN
289.6537°
Arg perigee
330.8590°
Mean anomaly
29.2023°
Rev number
26,716

§ Raw data

TEIKYOSAT-4 (OORURI)1 49396U 21102B   26263.89861284  .00001116  00000+0  72792-4 0  99912 49396  97.3627 289.6537 0011026 330.8590  29.2023 15.09785639267168

JSON: /api/v1/satellites/49396 · /tle

For live sub-satellite position, see the globe view (requires WebGL).

§ Visibility from observer

Set your observer location to see the next 7 days of passes ≥ 10°. The values pass through the URL so the page stays shareable.

No JS? Fill the form by hand. The geolocation button needs JavaScript.

§ Radio — SatNOGS DB

ModeDescriptionDownlinkUplink
FSK Mode S - FSK115k2 5.831 GHz
AFSK Mode U - AFSK1k2 437.450 MHz
CW Mode U - CW Beacon 437.450 MHz
GMSK Mode U - GMSK9k6 437.450 MHz
SSTV Mode U - SSTV 437.450 MHz

5 transmitters · refreshed weekly from db.satnogs.org